STARLINK-34642, 64910

Orbit data source: Space-Track

STARLINK-34642, 64910 is a payload satellite owned by SpaceX/Seattle (US) in LEO that was launched on Sat, 26 Jul 2025 UTC via an FALCON 9 launch vehicle from the Air Force Eastern Test Range (AFETR). Payload-class satellites include a variety of spacecraft equipped with specific instruments for various scientific and technological missions. These include communications satellites like Starlink; space stations such as the ISS; scientific satellites like the Hubble; Earth observation satellites from companies like Planet Labs, Umbra, and HawkEye 360; GPS; miniature CubeSats for education and research; and military/defense satellites.

Loading next visibility...
Identifier
64910, 2025-157G
Orbit
LEO
Country
Flag of USUS
Related business
Manufacturer
SpaceX/Seattle
Mission
Operational Commercial Communications
Bus & Motor
STARLINK V2MO, Unknown motor
Mass
575 kg wet, ~530 kg dry
Launch date (UTC)
2025-07-26 (10 months ago)
Launch vehicle
FALCON 9
Launch site
Air Force Eastern Test Range (AFETR)
Object type
Payload
Rocket body
Debris
Shape & HBR
Box + 2 Pan, 17.7 m
Radar Cross Section
36.964 m², Large (>1 m²)

Expand to show TLE details & history
Last TLE update: 8 hours ago

TLE from 8 hours ago
0 STARLINK-34642
1 64910U 25157G   26145.57800299  .00031183  00000-0  10116-2 0  9995
2 64910  53.1591 347.9724 0000858  78.6013 281.5084 15.31726350 47909
Epoch: 2026-05-25T13:52Z
TLE epoch observation values (Epoch: 2026-05-25T13:52:19.458Z)
Latitude
-0.00008°
Longitude
-103.27252°
Altitude
471.444 km
Speed
7.632 km/s
True Right ascension
23h 11m 53s
True Declination
0° 00' 00"
Sunlit
Object was in daylight at epoch
Visualization orbit readout
Latitude
Unknown
Longitude
Unknown
Altitude
Unknown
Speed
Unknown
Apparent Right ascension
Unknown
Apparent Declination
Unknown
Sunlit
N/A
Visualization observer readout
Local Sidereal Time
06:59:04
Azimuth
Unknown
Elevation
Unknown
Doppler factor
Unknown
Orbital elements
Apogee altitude
471.506 km
Perigee altitude
470.331 km
Semi-major axis
6,849.055 km
Eccentricity
0.00009
Inclination
53.1591°
RAAN
347.9724°
Arg. of periapsis
78.6013°
True anomaly
281.49877°
Mean anomaly
281.5084°
Eccentric anomaly
281.50358°
Mean motion
3.8291 °/min
Orbital period
94.02 mins
BSTAR
0.0010116
Loading maneuver chart data...
Computing Atmospheric mass density...
Loading historical data...
Loading historical data...
Loading historical data...
Loading historical data...
Loading historical data...
Loading historical data...
Loading historical data...

Documentation

Showing up to 5 results
|